Theta_e
291 290 289 289 289 289 289 290 290 290 290 290 290 289 290 290 290 289 289 289 290 290 289 289 288 288 288 288 288 288 287 286 287 286 285 285 285 284 285 284 284 283 283 284 283 283 283 283 283 283 283 284 283 283 283 283 282 282 282 283 282 282
291 290 289 288 288 288 289 289 289 289 290 289 289 289 289 289 289 288 288 289 289 289 288 288 288 288 288 287 287 287 287 286 286 285 285 285 285 285 285 284 283 283 283 283 283 283 283 283 282 283 282 283 282 282 281 281 281 280 280 281 282 282
291 290 290 289 289 289 289 289 288 289 289 289 289 288 288 288 288 288 288 288 288 287 287 287 287 287 287 287 287 286 286 286 286 285 285 285 284 284 284 283 283 283 283 283 283 283 282 282 282 282 282 282 281 281 281 280 280 279 280 280 280 281
291 290 289 289 288 287 287 288 288 288 288 288 288 288 288 287 287 288 287 287 287 286 286 286 286 286 286 286 286 285 285 285 285 285 284 283 284 284 284 283 284 283 283 282 282 282 282 281 281 281 280 280 280 280 282 281 279 279 279 279 279 280
291 289 288 288 287 287 287 287 287 287 287 288 288 287 287 287 287 287 287 286 285 285 285 285 285 285 285 284 284 284 284 284 284 284 284 283 283 283 283 283 282 282 282 281 281 281 281 281 280 280 280 279 279 279 279 280 278 278 278 278 278 279
291 289 288 288 287 287 286 287 287 287 287 287 287 287 287 287 287 287 286 286 285 285 284 284 284 284 283 283 283 282 283 283 283 284 284 283 283 282 282 282 281 281 281 280 280 280 280 280 280 279 279 279 278 278 278 278 278 278 278 278 278 278
290 289 288 288 287 287 286 287 287 287 287 287 287 287 287 286 286 286 285 285 284 284 284 283 283 283 283 283 283 283 283 283 283 283 282 282 282 281 281 281 280 280 280 280 279 279 279 279 279 278 278 278 278 277 277 277 277 277 278 278 278 278
290 290 289 288 288 287 287 287 287 287 287 287 287 286 286 286 286 285 285 285 284 283 283 282 282 282 282 283 283 283 283 283 282 282 282 282 281 280 280 280 280 279 279 279 278 278 278 278 278 277 277 277 277 277 277 277 277 277 278 278 278 278
290 290 290 289 288 288 287 287 287 287 287 287 287 286 286 286 285 285 284 284 283 283 282 282 282 282 283 284 284 283 283 282 282 281 280 280 280 279 279 279 278 279 278 278 278 277 277 277 277 277 277 277 277 276 276 277 277 278 278 278 278 278
291 291 290 289 288 288 287 287 287 287 286 286 286 286 286 286 285 284 284 283 283 282 282 283 283 283 284 284 284 283 283 282 281 280 280 279 279 278 278 278 278 278 278 277 277 277 277 276 276 277 277 276 276 276 276 277 277 278 278 278 278 278
291 291 290 289 288 287 287 287 287 287 287 287 286 286 285 285 284 284 283 283 282 283 283 284 284 284 284 283 283 283 282 281 280 279 279 279 279 279 278 278 277 277 277 277 276 276 276 275 275 276 276 275 276 277 277 277 277 277 277 277 277 277
292 291 291 289 288 287 287 287 287 287 286 286 286 285 285 285 284 283 283 283 283 284 284 284 284 284 283 283 282 282 281 280 279 279 278 278 278 277 277 277 276 276 276 276 276 275 275 275 276 275 275 275 275 276 277 277 277 277 276 276 276 276
291 291 290 289 288 287 287 287 287 287 286 286 286 285 285 285 284 284 284 283 284 284 284 284 283 283 283 283 282 282 280 279 279 278 278 277 277 276 276 276 275 275 275 275 275 275 275 275 275 275 276 276 277 277 276 276 276 276 276 275 275 275
291 290 290 290 289 288 287 287 287 287 286 286 286 285 285 285 284 284 284 284 284 285 284 284 284 283 283 282 282 281 280 279 278 278 277 276 276 275 275 275 275 275 275 275 274 274 274 274 275 276 276 276 277 277 276 276 276 275 275 275 275 275
290 290 290 290 290 289 289 289 287 286 286 286 286 286 286 285 285 284 284 284 284 284 284 284 284 283 283 282 282 280 279 278 277 276 276 275 276 275 274 274 274 274 274 274 273 273 274 273 275 275 276 276 277 277 277 276 276 275 275 275 275 275
291 291 291 291 291 291 291 289 288 287 287 287 287 286 286 285 284 284 284 284 284 284 284 284 283 283 283 282 281 280 278 277 276 276 276 275 275 274 274 274 273 274 273 273 273 272 273 273 274 275 275 276 276 277 277 276 275 275 275 275 275 275
291 291 290 290 291 291 290 289 289 289 288 287 286 286 285 285 284 284 284 284 284 284 284 284 284 283 283 282 280 279 277 277 276 276 275 274 274 273 273 273 272 272 272 272 271 271 271 272 274 274 275 276 276 277 277 275 275 275 274 274 274 274
291 291 291 291 291 290 290 290 290 289 287 287 286 286 285 285 284 284 284 284 284 284 284 284 283 283 282 281 279 278 277 276 276 275 275 274 274 274 274 273 273 271 271 270 270 269 269 270 273 274 275 275 276 276 275 274 274 273 273 273 273 273
292 292 291 290 289 289 289 289 289 288 287 286 286 286 285 285 284 284 284 284 284 284 284 284 283 283 282 281 279 277 277 276 275 275 274 272 273 273 272 271 271 271 270 269 268 268 268 269 271 273 274 274 275 275 273 273 272 271 271 271 272 272
291 290 289 288 288 288 288 288 287 287 286 286 286 285 285 284 284 285 284 284 285 285 284 284 283 282 281 280 278 277 277 276 275 274 273 272 272 272 271 271 270 269 269 268 267 268 267 268 270 272 273 274 274 274 272 271 271 271 271 271 272 272
288 287 287 287 286 286 287 286 286 286 285 285 285 285 284 284 284 284 284 285 285 285 284 284 283 282 281 279 279 277 276 275 274 273 272 272 272 271 271 270 269 268 268 267 267 268 267 266 268 271 272 273 274 273 272 271 270 270 270 270 271 272
285 285 285 285 286 286 285 285 285 285 285 285 285 284 284 284 285 285 285 285 285 285 284 283 282 281 280 279 278 277 276 275 273 271 271 270 271 270 270 268 268 267 267 267 265 264 266 266 266 267 271 272 273 273 272 271 270 269 270 270 270 270
286 286 286 286 286 285 285 285 284 284 284 284 283 283 284 285 286 285 285 285 284 284 283 282 281 280 279 279 278 276 274 273 272 270 269 268 269 269 268 267 267 266 266 266 266 265 264 265 264 265 270 271 272 273 273 271 271 270 270 270 270 270
287 287 287 287 285 284 284 284 283 284 284 283 282 283 285 285 285 285 285 284 283 282 281 279 279 279 278 276 275 273 272 271 270 269 268 269 268 266 266 265 265 265 265 266 266 265 265 266 267 265 268 271 272 273 274 272 271 272 271 270 270 271
285 286 286 285 284 283 283 283 282 283 283 282 283 284 285 285 284 283 283 282 280 279 278 277 276 275 274 273 273 271 270 268 267 267 267 267 266 265 264 264 264 265 265 265 266 266 265 265 266 269 267 270 272 273 273 274 273 275 273 272 271 271
285 285 285 284 283 282 283 282 282 282 282 282 285 284 283 282 282 280 280 278 278 276 275 273 272 272 270 270 270 270 269 267 266 265 265 265 265 265 264 265 265 265 265 265 266 267 267 266 265 267 269 269 271 272 273 274 275 275 273 273 272 272
284 284 284 283 282 282 281 282 282 281 281 283 284 283 281 279 278 277 276 276 275 274 272 270 269 268 268 268 268 268 268 266 265 265 265 264 265 266 267 267 267 266 266 267 267 267 267 266 266 266 268 270 271 272 273 274 275 275 275 273 273 273
283 283 283 283 282 280 280 281 282 281 282 284 283 281 279 276 275 274 275 274 273 271 269 268 267 266 266 266 268 268 269 266 265 266 266 265 265 266 266 267 268 267 267 266 267 267 267 267 266 266 267 269 270 271 272 273 274 274 274 274 273 275
281 281 281 282 282 280 279 279 280 282 283 281 281 279 276 274 274 274 273 272 271 269 267 267 267 266 265 265 266 267 268 267 266 267 267 266 266 266 266 267 267 267 266 266 266 266 266 266 267 267 268 269 269 270 271 271 272 273 274 273 272 273
280 280 280 281 283 282 279 278 278 279 280 278 277 275 273 273 273 274 273 271 270 268 266 267 266 265 265 264 265 266 267 267 267 267 267 267 267 267 267 266 266 266 266 266 267 266 266 266 266 267 267 268 269 270 271 271 272 271 271 271 272 272
279 280 280 281 282 282 280 278 278 278 278 276 272 272 272 273 272 272 272 270 269 268 266 267 267 266 266 264 264 265 267 266 266 267 267 267 268 269 268 268 268 267 267 267 267 266 265 266 266 267 270 270 271 271 271 271 271 271 271 273 274 271
280 279 280 281 281 280 280 279 278 276 276 274 271 270 271 272 271 270 271 269 268 268 266 267 267 266 267 265 264 264 264 266 268 267 266 265 268 269 270 270 267 267 267 266 266 267 266 266 268 271 273 273 273 274 275 274 274 274 273 275 273 269
278 278 278 279 279 279 278 277 276 274 273 272 271 270 270 270 272 271 271 269 269 268 267 267 267 266 267 266 265 265 264 264 266 269 270 269 268 269 270 271 271 271 270 267 266 268 272 272 272 273 273 274 274 274 274 274 274 274 275 273 269 267
277 277 277 278 277 276 275 274 273 272 271 270 270 269 270 270 272 272 272 271 268 268 267 267 266 266 266 266 266 265 265 265 265 265 269 271 271 270 271 271 272 272 273 273 272 270 269 272 273 274 274 273 273 273 273 273 274 274 273 271 270 265
278 278 276 276 276 274 273 272 271 269 267 267 267 267 268 268 269 271 270 269 269 267 266 266 266 265 265 264 264 264 265 265 266 266 266 268 271 272 272 272 272 273 273 273 274 274 273 272 272 272 273 272 273 273 273 273 274 272 271 270 267 263
277 277 276 275 273 272 271 270 267 265 264 264 265 265 266 267 267 267 269 269 267 266 265 265 265 265 265 265 265 264 264 264 265 266 267 266 265 266 269 271 271 272 272 272 272 273 273 273 272 272 272 272 272 272 272 273 271 270 270 268 264 263
274 274 272 270 269 268 267 265 261 261 261 263 263 263 264 264 265 265 265 264 265 266 266 265 266 265 265 265 264 264 263 263 264 264 263 263 264 264 264 264 266 269 270 268 268 270 270 270 270 270 271 271 272 272 272 272 267 266 265 264 262 261
270 268 266 265 265 264 264 260 259 260 260 261 261 261 262 263 263 264 265 263 263 264 265 265 264 265 264 263 263 263 263 263 262 262 261 261 261 261 262 262 264 264 266 268 268 268 268 269 269 270 270 271 271 271 271 266 265 264 263 262 261 260
Wind_Speed
11 10 11 10 10 9 9 9 8 7 7 8 8 9 9 8 7 7 6 6 5 5 6 7 7 7 7 7 7 6 7 7 6 6 6 5 5 4 4 4 4 4 3 3 3 3 2 3 3 3 3 2 3 3 2 3 4 4 4 2 2 3
12 12 12 12 11 11 9 9 7 9 8 8 8 7 7 7 7 7 7 6 5 6 7 6 7 7 7 7 7 7 7 7 7 7 7 6 5 5 5 4 4 4 4 3 3 3 3 3 3 3 3 3 3 3 3 4 4 4 4 3 3 2
12 11 11 10 9 8 9 9 9 9 8 8 8 10 9 8 7 7 7 6 6 7 8 8 7 7 6 7 7 7 7 7 7 6 6 6 5 5 5 5 4 4 4 4 4 4 4 4 4 3 3 2 3 3 3 3 3 4 4 4 4 3
12 11 10 9 9 9 10 9 9 9 9 8 8 8 8 9 8 7 7 6 7 7 7 7 6 6 6 6 7 6 6 6 6 7 7 6 6 5 5 5 4 4 4 4 4 4 4 3 3 2 2 2 2 3 1 2 4 4 4 4 5 4
12 12 12 12 11 10 10 9 9 9 10 9 9 9 9 9 8 7 7 7 8 8 8 7 7 6 6 6 5 5 5 5 6 6 7 6 6 5 5 5 5 4 4 4 4 3 2 2 1 1 1 1 2 2 3 3 4 4 5 5 5 5
11 11 12 12 11 11 12 10 9 9 10 9 9 10 10 9 8 8 8 7 8 8 8 7 6 6 6 5 4 6 6 6 6 5 5 6 5 5 5 5 5 4 4 3 2 2 1 1 1 1 1 1 2 2 3 4 4 4 5 5 6 6
12 12 12 12 11 11 11 11 11 11 11 10 10 10 10 9 8 9 9 9 9 9 8 7 7 7 6 5 5 7 6 6 5 5 5 5 6 5 5 5 4 3 3 2 1 1 1 1 1 2 2 1 1 2 3 4 4 5 5 6 6 6
11 11 12 11 11 12 12 11 11 11 11 11 10 10 10 10 9 9 9 9 9 8 8 7 7 7 7 7 7 7 7 6 5 5 5 5 6 5 5 4 3 3 2 1 0 1 2 2 2 2 2 2 2 2 3 4 4 5 5 6 6 6
14 14 12 12 12 12 11 12 12 11 11 11 11 10 10 10 10 10 9 9 9 8 9 8 8 8 9 8 8 7 6 5 5 5 5 5 5 5 4 4 3 2 2 1 1 2 2 2 2 2 2 2 2 3 3 4 5 5 5 5 6 6
12 13 13 12 12 11 11 11 12 12 12 12 11 11 10 8 10 10 10 9 9 9 10 10 9 9 9 8 7 7 6 6 5 5 5 5 5 5 4 4 3 2 2 2 2 2 2 2 3 2 2 2 3 3 4 4 5 5 6 6 6 6
13 13 12 12 12 13 13 12 12 11 11 11 11 11 11 10 10 10 10 9 9 10 10 9 9 8 7 7 7 7 6 6 6 6 5 5 5 4 4 4 4 3 3 3 3 2 2 2 2 1 1 2 3 3 4 5 5 6 6 6 7 7
10 11 11 11 13 14 13 12 13 13 12 12 11 11 10 10 11 11 10 11 11 10 9 9 8 8 7 7 7 7 6 6 6 6 6 5 5 4 4 4 4 4 4 3 3 3 3 2 2 1 2 4 3 4 4 5 5 5 6 6 7 7
10 10 11 12 13 14 13 12 11 11 11 11 11 12 11 11 11 11 12 12 11 10 9 9 9 8 8 7 7 5 5 7 5 4 4 4 5 5 4 4 5 4 4 4 4 4 3 3 3 3 4 6 7 6 5 5 5 6 7 7 7 7
12 12 12 12 12 13 12 11 11 11 12 12 12 11 11 11 12 12 13 12 11 10 10 9 9 9 8 7 7 6 5 4 5 5 5 4 4 4 4 5 5 5 5 4 4 4 4 4 4 5 6 7 8 8 6 5 6 6 6 7 8 7
12 12 11 11 12 13 14 13 11 12 13 13 13 10 12 13 12 13 12 12 11 10 10 10 10 8 8 7 6 5 5 4 5 5 5 5 4 4 4 6 5 5 5 5 5 5 4 4 5 6 7 8 9 9 8 6 7 7 7 8 8 8
8 9 11 11 12 12 11 11 11 10 11 11 11 12 12 12 12 12 12 11 11 11 11 11 9 9 8 8 7 5 5 5 6 5 4 4 4 4 4 4 4 4 5 5 5 5 5 5 5 7 8 9 10 10 9 7 7 8 8 9 9 8
8 9 10 10 10 9 10 10 10 9 10 11 11 10 11 11 12 11 12 12 12 11 9 11 10 10 8 8 8 7 7 6 5 6 5 5 5 5 5 5 5 4 4 4 3 4 4 4 7 8 9 10 10 10 9 7 7 7 8 8 8 9
10 10 9 7 8 9 10 10 9 9 9 9 9 9 10 11 11 12 11 12 11 12 12 11 11 11 9 9 9 10 9 7 8 7 5 5 4 4 4 3 4 4 5 4 4 3 5 5 8 9 10 10 10 10 6 6 7 7 7 8 8 8
6 6 7 7 8 8 8 8 8 8 8 9 8 10 10 9 10 12 12 10 12 13 12 12 12 12 11 11 11 11 11 9 8 6 4 4 4 5 5 4 4 4 4 5 5 5 5 4 6 8 9 9 10 7 5 5 6 7 7 8 8 8
5 6 7 7 7 7 7 8 8 8 8 9 8 9 9 9 11 11 12 13 11 12 13 12 12 12 11 11 12 13 9 5 3 4 4 5 6 5 5 4 3 4 4 5 5 5 4 3 5 8 9 10 10 8 6 5 6 7 7 8 8 8
7 7 7 8 8 8 8 8 9 9 8 8 8 9 7 10 11 12 13 13 12 11 12 11 11 11 11 12 13 11 11 10 7 4 4 3 3 3 4 4 3 3 3 3 4 6 6 4 6 9 10 10 10 7 5 5 6 7 7 7 7 7
8 6 7 8 8 8 9 9 9 7 8 9 8 8 9 12 13 12 10 9 10 10 9 10 10 10 11 12 10 9 9 6 5 6 5 3 3 3 3 3 3 4 3 3 4 4 4 4 4 5 10 9 10 10 6 5 6 7 7 7 7 7
6 7 7 5 7 8 8 8 7 7 7 8 9 10 12 11 9 9 9 9 8 8 9 8 9 11 10 9 9 8 7 5 6 6 6 5 3 3 3 4 3 2 3 3 4 4 4 5 4 6 10 10 10 11 10 6 7 7 7 7 7 7
4 4 4 5 6 7 7 7 8 8 9 7 9 12 10 7 9 9 8 7 7 7 7 8 8 8 8 6 7 8 8 5 5 6 6 4 4 5 3 3 2 3 3 3 4 4 4 6 9 5 8 10 11 12 13 8 7 8 7 8 8 8
5 5 6 5 6 5 6 8 9 8 7 9 13 11 8 9 8 6 7 6 7 7 8 7 8 8 6 7 8 10 9 6 6 6 5 5 4 5 5 3 3 3 3 3 4 4 5 4 5 10 8 11 12 12 13 14 11 13 9 8 8 8
5 4 5 5 6 5 6 9 9 8 8 12 12 8 5 5 5 5 5 6 7 7 7 6 6 6 6 7 8 8 10 9 7 5 4 4 4 4 4 4 4 4 4 4 4 4 4 4 4 7 11 10 12 12 13 13 14 14 9 9 8 8
8 6 5 5 7 6 6 7 9 9 11 11 7 6 6 6 5 6 6 7 7 7 6 5 6 6 6 7 9 10 8 9 8 6 5 5 5 5 5 5 5 5 4 4 4 3 3 4 5 4 7 12 11 12 13 13 13 13 13 9 8 9
2 3 4 5 6 6 6 7 8 11 12 9 6 6 6 7 7 7 9 7 6 6 6 8 5 5 5 7 4 5 4 6 7 6 6 6 5 5 5 4 4 4 4 4 3 3 3 4 4 4 5 7 9 9 11 12 12 12 12 12 10 14
4 5 5 6 5 7 7 8 9 10 6 3 4 5 6 7 8 8 7 8 7 6 7 9 6 5 5 4 4 4 4 6 6 5 5 6 6 6 5 5 5 4 4 4 4 4 4 4 4 5 4 5 5 5 7 7 7 9 10 8 8 9
6 6 6 8 8 6 7 8 10 10 6 1 3 5 6 7 8 10 9 9 7 6 6 5 9 7 5 6 6 7 6 5 6 7 8 8 8 7 6 6 6 6 5 4 4 4 4 4 5 5 5 5 5 6 6 6 5 5 5 7 6 4
8 8 7 8 5 4 5 8 9 8 7 4 3 4 7 9 8 7 5 5 5 4 4 5 5 6 6 5 4 3 3 5 6 6 3 2 2 3 5 5 5 5 4 4 4 5 4 5 6 7 8 8 9 8 6 5 5 5 6 8 10 2
6 6 6 7 3 3 5 7 6 4 3 3 3 4 6 5 4 4 5 4 3 3 4 4 4 4 4 4 5 4 2 2 5 4 2 1 5 7 6 5 3 3 4 4 4 5 6 5 5 8 12 13 13 14 14 12 11 12 10 12 2 5
4 4 5 6 4 4 4 4 2 3 3 4 5 6 6 5 4 3 3 5 5 6 4 4 3 4 3 3 4 4 4 3 4 10 12 9 7 9 12 12 12 11 11 7 5 7 13 13 14 14 14 15 14 13 12 12 13 13 13 2 5 1
4 6 10 5 2 4 3 3 1 2 3 4 5 5 6 7 6 4 4 3 2 5 5 3 3 3 4 3 4 4 5 4 3 3 11 15 13 12 13 14 15 15 15 16 13 9 6 11 14 16 15 14 13 13 12 12 13 12 6 5 5 1
5 3 2 1 2 2 1 1 0 1 2 3 4 5 6 6 6 6 1 3 4 3 5 3 3 3 4 4 4 4 4 4 5 4 3 6 14 15 15 15 15 15 16 16 16 17 14 12 11 13 13 13 14 13 12 13 13 7 7 6 2 2
0 0 1 1 1 1 0 1 1 2 1 2 3 4 5 5 5 3 2 2 3 3 3 4 3 4 4 4 4 4 4 4 4 3 2 4 3 4 9 13 15 14 14 14 15 16 15 14 13 13 13 14 14 14 13 14 5 6 6 5 2 3
1 1 1 1 1 0 0 1 3 2 1 2 3 3 3 3 3 2 1 2 4 2 2 3 3 3 3 3 3 3 3 3 2 2 2 2 3 4 4 4 5 9 12 8 7 9 10 11 12 13 14 15 15 13 15 10 4 3 3 2 3 3
0 1 2 2 1 1 1 3 3 3 2 1 2 2 2 2 2 1 1 2 1 1 1 2 2 2 2 2 1 1 2 2 2 2 2 2 2 2 2 3 2 2 4 8 9 10 12 13 14 14 15 14 14 14 11 6 4 3 3 3 3 4
Wind_Direction
169 168 167 162 164 162 161 160 158 155 158 161 161 158 157 149 145 139 135 130 128 130 128 126 123 125 126 131 133 132 131 132 132 127 120 124 130 136 143 151 153 146 137 124 113 114 112 96 76 44 35 21 33 8 24 33 4 353 344 346 357 341
171 170 167 166 166 164 163 160 157 163 161 160 157 149 146 144 143 142 140 136 131 131 129 131 134 137 140 145 147 145 141 137 136 135 140 144 148 148 153 147 138 129 122 117 116 107 89 72 63 49 30 23 31 10 14 3 355 349 331 336 339 325
168 165 166 163 157 159 159 163 168 167 161 164 160 156 154 154 151 148 143 140 143 143 145 145 147 149 151 155 154 144 143 143 143 146 144 148 154 161 155 142 134 123 118 108 90 76 68 60 47 35 25 21 17 5 19 344 342 336 325 323 319 314
166 160 157 157 157 164 167 166 167 168 166 167 162 160 161 159 157 158 148 147 148 153 149 150 151 153 156 157 153 148 148 152 153 149 155 153 154 152 134 124 119 103 91 88 73 68 63 56 48 36 15 14 352 355 0 335 331 323 319 319 313 322
164 162 162 165 168 167 167 168 172 171 169 170 169 166 168 163 159 155 152 153 155 159 156 156 159 160 162 156 153 149 154 157 155 165 161 147 140 127 112 105 96 87 81 72 66 63 60 47 49 25 24 345 350 337 335 327 323 316 314 313 311 316
156 155 166 172 173 171 173 172 172 173 176 175 170 173 166 162 160 158 157 156 161 160 160 162 161 162 163 160 157 161 165 164 166 163 142 133 125 112 96 90 84 79 70 71 70 67 45 8 352 320 333 339 333 326 317 316 311 303 300 300 303 306
168 173 175 176 174 170 173 174 178 177 178 174 174 172 169 165 163 162 163 163 163 163 163 163 163 166 168 171 171 176 169 166 155 142 133 121 109 103 105 92 79 75 76 69 57 358 292 304 304 297 290 302 298 298 294 292 294 293 291 291 292 295
172 172 178 176 177 174 175 176 179 178 176 177 173 170 170 169 164 167 165 165 165 163 164 164 167 173 177 182 178 172 168 160 146 133 119 113 109 102 95 97 88 89 78 85 308 284 287 279 286 286 283 286 293 288 287 284 285 285 288 288 287 286
186 189 181 179 175 174 175 175 176 176 174 174 174 175 172 169 167 168 166 166 164 165 169 170 177 180 187 186 175 169 161 154 143 132 122 114 113 112 112 111 111 115 140 212 214 254 264 277 280 277 281 279 278 283 280 285 282 283 285 282 284 284
188 181 181 174 174 172 171 175 177 175 175 177 173 174 171 168 167 167 167 166 170 175 178 180 182 186 186 178 168 162 156 143 138 129 120 118 119 121 128 136 140 157 173 205 220 233 250 266 268 272 278 281 283 283 283 278 282 286 286 284 285 285
188 183 177 173 168 173 175 175 174 173 175 176 175 176 175 165 165 169 171 173 179 185 184 182 183 182 172 161 159 158 152 145 142 134 128 125 127 127 137 141 148 169 200 201 212 225 243 251 258 264 311 316 303 295 292 291 286 285 287 286 284 280
183 178 174 169 176 175 178 176 177 178 176 177 176 175 171 162 172 173 179 183 189 187 183 180 168 170 161 160 164 161 149 149 147 141 135 136 142 146 151 155 165 183 199 207 212 217 223 239 240 210 272 273 279 298 292 290 282 280 279 280 280 278
187 176 176 177 179 179 179 177 176 175 177 176 177 177 172 168 178 183 185 191 191 187 176 169 171 172 169 165 162 156 151 153 151 147 140 147 151 158 161 170 180 187 195 202 213 219 225 226 228 226 259 265 269 275 279 277 279 278 277 273 272 273
188 181 180 178 176 179 179 177 176 174 183 180 181 176 174 179 183 186 191 192 187 181 173 171 166 175 173 164 170 154 153 147 152 150 149 152 157 170 170 192 190 187 188 197 211 219 226 237 235 246 258 266 268 266 266 268 271 271 267 266 265 267
192 191 184 180 182 187 188 179 175 185 184 182 183 170 182 185 184 188 190 187 183 178 179 179 174 177 177 172 160 155 144 152 156 155 157 164 167 168 182 198 191 188 191 198 207 220 227 234 243 248 257 262 266 266 266 266 263 264 262 262 264 268
187 189 186 186 187 186 181 177 181 182 180 181 180 182 181 178 181 184 187 185 189 187 182 182 179 185 184 167 161 156 161 166 176 163 157 153 158 177 188 195 195 189 194 200 207 216 227 239 241 248 253 259 262 264 265 263 262 259 260 259 263 264
179 183 186 188 183 176 173 182 183 185 184 185 181 175 171 178 181 190 194 196 192 188 187 186 185 189 182 171 160 167 177 175 172 161 166 162 172 177 186 191 191 196 194 197 204 215 231 238 242 249 253 256 261 265 268 262 260 260 258 260 260 264
179 182 184 172 169 176 178 180 176 171 168 163 166 165 173 179 188 196 194 195 194 195 192 188 192 192 187 168 171 180 182 180 183 164 166 158 171 176 182 193 184 187 188 195 200 216 231 242 246 249 251 256 261 267 267 259 258 256 257 259 263 265
169 163 145 152 161 160 167 161 160 160 154 161 169 171 177 181 191 198 197 197 197 196 192 188 191 194 189 186 185 192 193 175 181 170 162 154 173 175 183 184 186 186 182 195 200 212 232 238 249 253 255 259 261 264 262 260 258 259 260 262 264 263
128 133 141 147 156 157 156 158 158 159 156 162 164 166 176 184 197 196 197 203 202 196 192 192 195 197 197 191 197 199 184 145 143 162 159 167 174 183 181 176 177 189 191 191 201 209 223 238 251 259 262 260 258 256 256 254 255 261 260 267 264 263
142 139 140 145 154 160 153 149 150 156 159 164 165 172 181 196 200 199 203 206 200 192 192 194 196 199 198 199 205 198 193 187 180 140 146 166 170 174 158 172 179 186 196 198 201 218 225 243 258 263 265 262 261 259 253 253 260 264 264 268 268 268
121 134 148 161 161 152 147 145 154 161 164 172 166 178 195 203 204 203 201 195 199 200 196 196 196 201 199 204 204 195 191 157 139 153 163 165 167 170 171 170 189 181 201 185 183 209 231 240 248 253 261 260 258 253 248 251 253 260 268 269 273 278
155 159 169 164 146 142 145 148 155 169 175 168 175 197 205 203 192 190 196 195 196 195 196 195 193 197 203 201 195 177 170 157 167 150 161 162 176 165 171 164 182 177 205 205 204 203 219 222 232 248 253 257 252 250 247 248 250 258 265 270 273 273
154 147 138 145 133 141 151 160 169 178 172 176 196 209 202 182 187 189 190 190 192 189 187 190 193 193 192 178 159 166 175 157 143 150 155 169 166 163 156 153 184 206 211 214 197 210 218 225 229 233 252 250 247 245 243 240 244 247 255 261 262 265
166 177 166 141 130 142 157 167 178 184 182 191 211 205 189 192 185 185 188 186 184 187 187 188 184 182 170 172 175 169 172 147 147 149 151 164 149 154 165 177 195 206 216 214 220 206 208 213 227 234 238 248 246 245 243 244 246 249 252 256 266 272
167 162 162 145 143 159 168 175 183 191 192 212 214 195 188 181 179 170 176 185 190 185 187 181 176 169 167 167 163 166 165 167 157 147 162 164 169 173 181 199 186 199 210 214 224 211 199 196 205 235 235 239 245 247 248 248 249 252 254 259 265 269
181 181 173 160 158 157 177 187 186 194 205 222 198 187 179 174 162 170 185 194 192 189 176 160 167 167 164 163 157 157 163 155 162 167 175 158 182 189 188 194 184 190 203 209 209 204 197 190 202 211 235 238 243 247 251 253 256 258 259 262 265 269
169 173 198 187 168 176 189 200 198 201 218 211 193 182 168 163 167 185 199 195 189 179 157 162 150 142 141 163 171 174 169 154 163 175 167 172 186 186 187 192 186 192 197 208 209 203 200 199 196 213 216 229 242 249 249 250 252 256 260 263 268 267
194 214 212 224 202 191 200 203 217 225 234 206 178 161 160 168 184 195 196 193 175 157 160 163 165 163 157 171 169 178 176 169 176 182 174 177 184 184 186 187 189 190 195 199 203 195 190 198 207 208 214 214 228 226 236 238 247 249 254 264 263 267
200 212 213 226 224 201 204 207 220 227 231 176 142 152 159 179 192 197 201 191 168 163 166 176 174 168 167 183 179 179 183 181 184 187 193 184 182 173 181 180 187 193 192 195 187 184 191 204 206 209 207 221 217 227 225 229 225 248 255 258 261 251
204 214 213 231 230 211 209 218 225 224 218 198 140 156 177 199 203 209 194 167 147 164 162 185 172 184 176 177 190 211 195 182 183 194 205 197 187 191 184 181 191 189 191 182 186 174 199 206 213 213 212 215 221 219 226 224 244 248 258 255 257 234
205 214 225 242 241 223 226 227 231 222 203 166 149 160 195 205 177 186 196 167 171 164 159 191 184 183 178 164 186 187 212 219 206 213 193 188 208 223 229 207 191 173 163 185 201 188 196 209 213 224 222 230 234 236 241 250 252 256 252 261 252 108
208 223 246 247 235 237 242 246 216 177 174 168 169 177 192 182 193 208 202 176 197 184 168 176 180 171 185 174 171 186 200 215 225 222 225 225 210 218 228 228 226 216 206 190 197 213 229 240 244 242 240 240 242 243 249 253 256 255 261 218 105 21
211 218 233 241 230 235 242 241 222 164 169 171 178 184 194 196 201 209 205 176 158 161 166 178 168 149 175 183 168 179 188 200 196 210 219 221 224 224 226 229 228 228 228 228 223 217 217 241 245 248 251 253 249 250 249 250 252 257 176 140 122 147
228 238 242 206 223 230 229 231 212 113 139 161 169 180 197 207 213 228 220 150 162 167 175 180 170 171 178 180 171 180 186 198 205 201 184 203 218 225 230 232 233 235 238 239 243 245 246 242 244 245 243 242 249 248 247 247 253 182 153 143 181 210
318 114 173 211 179 187 163 159 67 60 84 126 159 177 199 211 221 233 248 207 148 154 164 176 181 176 190 190 188 190 185 203 207 209 186 160 166 218 240 243 241 241 243 247 247 246 244 244 244 247 248 252 251 250 244 249 204 159 162 194 207 209
336 351 43 47 55 70 80 80 47 13 63 127 152 166 190 203 206 212 240 120 145 162 162 170 182 175 181 176 181 179 183 195 195 184 189 210 202 209 206 206 228 235 234 229 232 235 235 237 244 247 251 250 250 242 248 233 160 206 182 195 167 211
61 55 49 56 68 76 87 76 33 23 22 66 128 145 161 151 142 157 144 105 107 114 133 147 154 163 169 164 166 149 174 157 165 177 200 202 234 258 276 280 226 208 240 239 235 233 240 245 247 250 249 249 244 250 227 186 219 188 214 198 198 190